Regional Weather Roundup
Issued by NWS

Home | Current Version | Previous Version | Text Only | Print | Product List | Glossary On
Versions: 1 2 3 4 5 6 7 8 9 10 11 12 13 14 15 16 17 18 19 20 21 22 23 24 25 26 27 28 29 30 31 32 33 34 35 36 37 38 39 40 41 42 43 44 45 46 47 48 49 50
000
ASUS44 KMEG 012210
RWRTN
TENNESSEE HOURLY STATE WEATHER ROUNDUP
NATIONAL WEATHER SERVICE MEMPHIS TN
500 PM CDT SAT OCT 01 2016

TNZ002-004-019-021-049-052-054-088>092-012300-
WEST TENNESSEE

CITY           SKY/WX    TMP DP  RH WIND       PRES   REMARKS
MEMPHIS INTL   CLOUDY    77  55  46 CALM      30.03S
NWS MEMPHIS      N/A     76 N/A N/A MISG        N/A
JACKSON        PTSUNNY  N/A N/A N/A W8        30.04F
DYERSBURG      CLOUDY   N/A N/A N/A MISG        N/A
UNION CITY     CLOUDY    72  57  60 W3        30.02F
PARIS          CLOUDY    68  57  68 CALM      30.05S
HUNTINGDON     CLOUDY    72  59  64 W5        30.03S
LEXINGTON      CLOUDY    72  55  56 W5        30.04S
$$

TNZ008-025-027-028-033-062-065-066-012300-
NORTH MIDDLE TENNESSEE

CITY           SKY/WX    TMP DP  RH WIND       PRES   REMARKS
NASHVILLE      PTSUNNY   74  55  51 VRB6      30.04F
PORTLAND       CLOUDY    68  59  73 VRB5      30.04F
CLARKSVILLE    CLOUDY    70  58  65 W7        30.03S
SMYRNA         MOSUNNY   74  56  53 NW5       30.04F
COOKEVILLE     CLOUDY    72  57  60 NW5       30.04S
GALLATIN       SUNNY     72  57  60 W3        30.06F
CROSSVILLE     CLOUDY    67  51  56 W6        30.08S
$$

TNZ061-075-076-078-094-096-097-012300-
SOUTH MIDDLE TENNESSEE

CITY           SKY/WX    TMP DP  RH WIND       PRES   REMARKS
FAYETTEVILLE   CLOUDY    73  54  49 CALM      30.04S
TULLAHOMA      CLOUDY    72  52  49 CALM      30.06S
WINCHESTER     CLOUDY    73  52  46 CALM      30.05R
MCMINNVILLE    CLOUDY    72  55  56 W3        30.05S
COLUMBIA       CLOUDY    72  61  68 CALM      30.03S
SHELBYVILLE    CLOUDY    75  55  50 W3        30.05S
$$

TNZ017-018-042-046-047-012300-
NORTHEAST TENNESSEE

CITY           SKY/WX    TMP DP  RH WIND       PRES   REMARKS
TRI CITIES     MOSUNNY   71  49  45 NW5       30.06S
ELIZABETHTON   SUNNY     72  50  46 CALM      30.06S
$$

TNZ012-013-036-069-073-074-012300-
CENTRAL EAST TENNESSEE

CITY           SKY/WX    TMP DP  RH WIND       PRES   REMARKS
KNOXVILLE      MOSUNNY   73  50  44 W6        30.04S
OAK RIDGE      CLOUDY    73  52  47 NW3       30.06S
DOWNTOWN KNOXV CLOUDY    73  52  46 SW5       30.05S
GATLINBURG     PTSUNNY   75  48  38 W7        30.04S
MORRISTOWN     SUNNY     72  50  46 NW8G14    30.05S
JACKSBORO      CLOUDY    70  54  56 CALM      30.08S
$$

TNZ083-085-099-012300-
SOUTHEAST TENNESSEE

CITY           SKY/WX    TMP DP  RH WIND       PRES   REMARKS
CHATTANOOGA    PTSUNNY   77  50  38 SW5       30.03S
$$

SKY/WX REPORTED AS FAIR MEANS FEW OR NO CLOUDS BELOW
12 THOUSAND FEET.





USA.gov is the U.S. government's official web portal to all federal, state and local government web resources and services.